Flag for Qatar Weather past 2 weeks in Al-Jamiliyah, Qatar

Now
90 °F

Low level haze.


Feels Like: 86 °F
Forecast: 77 / 92 °F
Wind: 23 mph from Northwest

Location: Al Udeid


UV Index: 7 (High)

Visibility: 5 mi


Pressure: 29.85 "Hg

Humidity: 21%

Dew point: 45 °F

Location of Al-JamiliyahLocation

Historic Weather in Al-Jamiliyah

°F

Al-Jamiliyah temperature yesterday

Maximum temperature yesterday: 104 °F (at 11:58 AM)
Minimum temperature yesterday: 78 °F (at 3:58 AM)
Average temperature yesterday: 90 °F

Past Weeks' High & Low Weather Summary

 TemperatureHumidityPressure
High106 °F (Apr 18, 2:55 PM)92% (Apr 8, 4:58 AM)30.12 "Hg (Apr 8, 4:58 AM)
Low59 °F (Apr 7, 4:58 AM)10% (Apr 10, 2:58 PM)29.75 "Hg (Apr 18, 2:58 AM)
Average84 °F36%29.90 "Hg
* Reported Apr 5 8:58 AM — Apr 20 8:58 AM, Al-Jamiliyah, Weather by CustomWeather, © 2014

Note: Actual official high and low records may vary slightly from our data, if they occured in-between our weather recording intervals... More about our weather records

Advertising

Historic Weather Conditions — Data for Previous 24 hours

 ConditionsComfort  
Time TempWeatherWind HumidityBarometerVisibility
8:58 AM
Apr 20
90 °FLow level haze.23 mph21%29.85 "Hg5 mi
7:58 AM85 °FSunny.16 mph34%29.85 "HgN/A
6:58 AM80 °FSunny.13 mph48%29.84 "HgN/A
5:58 AM75 °FClear.8 mph61%29.83 "HgN/A
4:58 AM76 °FClear.12 mph58%29.82 "HgN/A
3:58 AM77 °FClear.13 mph55%29.81 "HgN/A
2:58 AM76 °FClear.10 mph58%29.81 "HgN/A
1:58 AM76 °FClear.10 mph52%29.82 "HgN/A
12:58 AM80 °FClear.10 mph42%29.83 "HgN/A
11:58 PM
Apr 19
81 °FClear.10 mph32%29.85 "HgN/A
10:58 PM82 °FClear.9 mph28%29.87 "HgN/A
9:58 PM84 °FClear.12 mph28%29.88 "HgN/A
8:58 PM85 °FClear.16 mph28%29.89 "HgN/A
7:58 PM87 °FClear.15 mph26%29.88 "HgN/A
6:58 PM90 °FSunny.17 mph23%29.87 "HgN/A
5:58 PM94 °FSunny.21 mph14%29.86 "HgN/A
4:58 PM97 °FSunny.23 mph15%29.84 "HgN/A
3:58 PM99 °FHaze.23 mph13%29.83 "Hg4 mi
3:03 PM100 °FSunny.24 mph17%29.83 "Hg3 mi
2:58 PM102 °FSunny.23 mph16%29.83 "Hg1 mi
1:58 PM101 °FSunny.13 mph19%29.84 "HgN/A
12:58 PM104 °FPassing clouds.9 mph11%29.84 "HgN/A
11:58 AM104 °FPassing clouds.3 mph10%29.85 "HgN/A
10:58 AM103 °FSunny.8 mph10%29.87 "HgN/A
9:58 AM100 °FSunny.8 mph12%29.89 "HgN/A
Weather by CustomWeather, © 2014

See weather overview